FW6583 Weather Reports


Display with metric or nautical units.
time (UTC)temp
F
wind
direction
speed
MPH
gust
MPH
rain 1hr
in
rain 24hr
in
rain mn
in
humidity
%
barometer
mb
20260831050049 71 0 0.0 0.0 0.00 0.00 0.00 95 1024.2
20260831045526 71 0 0.0 0.0 0.00 0.00 0.00 94 1024.2
20260831045025 71 0 0.0 0.0 0.00 0.00 0.00 94 1024.2
20260831044556 71 0 0.0 0.0 0.00 0.00 0.00 93 1024.1
20260831044026 72 0 0.0 0.0 0.00 0.00 0.00 92 1024.0
20260831043525 72 0 0.0 0.0 0.00 0.00 0.00 92 1024.0
20260831043054 72 0 0.0 0.0 0.00 0.00 0.00 92 1024.0
20260831042527 72 0 0.0 0.0 0.00 0.00 0.00 92 1024.1
20260831042025 72 0 0.0 0.0 0.00 0.00 0.00 92 1024.2
20260831041557 72 0 0.0 0.0 0.00 0.00 0.00 93 1024.1
20260831041029 72 0 0.0 0.0 0.00 0.00 0.00 93 1024.3
20260831040526 72 0 0.0 0.0 0.00 0.00 0.00 93 1024.4
20260831040047 72 0 0.0 0.0 0.00 0.00 0.00 93 1024.6
20260831035525 73 0 0.0 0.0 0.00 0.00 0.00 93 1024.8
20260831035026 73 0 0.0 0.0 0.00 0.00 0.00 92 1024.9
20260831034553 73 0 0.0 0.0 0.00 0.00 0.00 92 1025.0
20260831034028 73 0 0.0 0.0 0.00 0.00 0.00 92 1025.1
20260831033525 73 0 0.0 0.0 0.00 0.00 0.00 92 1025.0
20260831033056 73 0 0.0 0.0 0.00 0.00 0.00 92 1024.9
20260831032527 73 0 0.0 0.0 0.00 0.00 0.00 92 1025.0
20260831032026 73 0 0.0 0.0 0.00 0.00 0.00 92 1025.0
20260831031554 73 0 0.0 0.0 0.00 0.00 0.00 92 1025.0
20260831031029 73 0 0.0 0.0 0.00 0.00 0.00 93 1025.0
20260831030526 73 0 0.0 0.0 0.00 0.00 0.00 93 1024.9
20260831030058 73 0 0.0 0.0 0.00 0.00 0.00 93 1024.9
20260831025525 73 0 0.0 0.0 0.00 0.00 0.00 93 1024.9
20260831025031 73 0 0.0 0.0 0.00 0.00 0.00 93 1024.9
20260831024559 73 0 0.0 0.0 0.00 0.00 0.00 93 1024.9
20260831024026 73 0 0.0 0.0 0.00 0.00 0.00 93 1025.0
20260831023524 72 0 0.0 0.0 0.00 0.00 0.00 93 1025.0
20260831023053 73 0 0.0 0.0 0.00 0.00 0.00 93 1025.1
20260831022528 73 0 0.0 0.0 0.00 0.00 0.00 93 1025.0
20260831022026 73 0 0.0 0.0 0.00 0.00 0.00 93 1025.0
20260831021549 73 0 0.0 0.0 0.00 0.00 0.00 92 1024.9
20260831021025 73 0 0.0 0.0 0.00 0.00 0.00 92 1025.0
20260831020526 73 0 0.0 0.0 0.00 0.00 0.00 92 1025.0
20260831020047 73 0 0.0 0.0 0.00 0.00 0.00 92 1024.9
20260831015528 73 0 0.0 0.0 0.00 0.00 0.00 92 1024.8
20260831015027 73 0 0.0 0.0 0.00 0.00 0.00 92 1024.8
20260831014557 73 0 0.0 0.0 0.00 0.00 0.00 92 1024.8
20260831014027 73 0 0.0 0.0 0.00 0.00 0.00 92 1024.9
20260831013525 73 0 0.0 0.0 0.00 0.00 0.00 92 1024.9
20260831013056 73 0 0.0 0.0 0.00 0.00 0.00 91 1024.9
20260831012524 73 0 0.0 0.0 0.00 0.00 0.00 91 1024.8
20260831012028 73 0 0.0 0.0 0.00 0.00 0.00 91 1024.8
20260831011549 74 0 0.0 0.0 0.00 0.00 0.00 91 1024.7
20260831011027 74 0 0.0 0.0 0.00 0.00 0.00 90 1024.7
20260831010526 74 0 0.0 0.0 0.00 0.00 0.00 90 1024.6
20260831010120 74 0 0.0 0.0 0.00 0.00 0.00 90 1024.5
20260831005527 74 0 0.0 0.0 0.00 0.00 0.00 90 1024.4
20260831005029 74 0 0.0 0.0 0.00 0.00 0.00 89 1024.1
20260831004554 74 0 0.0 1.0 0.00 0.00 0.00 89 1024.1
20260831004027 74 0 0.0 1.0 0.00 0.00 0.00 89 1024.0
20260831003528 74 117 0.0 1.0 0.00 0.00 0.00 89 1023.9
20260831003101 74 117 0.0 1.0 0.00 0.00 0.00 88 1023.9
20260831002525 74 0 0.0 1.0 0.00 0.00 0.00 88 1023.9
20260831002026 74 0 0.0 1.0 0.00 0.00 0.00 88 1023.8
20260831001557 74 117 0.0 1.0 0.00 0.00 0.00 88 1023.7
20260831001026 74 117 0.0 1.0 0.00 0.00 0.00 88 1023.7
20260831000526 74 117 0.0 1.0 0.00 0.00 0.00 87 1023.7
20260831000052 75 117 0.0 1.0 0.00 0.00 0.00 87 1023.5
20260830235528 75 117 0.0 1.0 0.00 0.00 0.00 87 1023.4
20260830235025 75 118 0.0 1.0 0.00 0.00 0.00 86 1023.6
20260830234550 75 118 0.0 1.0 0.00 0.00 0.00 86 1023.4
20260830234030 75 118 0.0 1.0 0.00 0.00 0.00 86 1023.4
20260830233529 75 118 0.0 1.0 0.00 0.00 0.00 86 1023.5
20260830233101 75 118 0.0 1.0 0.00 0.00 0.00 85 1023.4
20260830232524 76 0 0.0 1.0 0.00 0.00 0.00 85 1023.3
20260830232025 77 0 0.0 0.0 0.00 0.00 0.00 85 1023.2
20260830231558 77 0 0.0 0.0 0.00 0.00 0.00 83 1023.2
20260830231025 77 0 0.0 0.0 0.00 0.00 0.00 83 1023.1
20260830230527 77 0 0.0 1.0 0.00 0.00 0.00 82 1023.1
20260830230052 77 0 0.0 1.0 0.00 0.00 0.00 82 1023.1
20260830225526 77 0 0.0 1.0 0.00 0.00 0.00 82 1023.0
20260830225027 77 0 0.0 0.0 0.00 0.00 0.00 81 1023.1
20260830224545 77 0 0.0 0.0 0.00 0.00 0.00 81 1023.1
20260830224026 78 0 0.0 1.0 0.00 0.00 0.00 80 1023.2
20260830223524 78 0 0.0 1.0 0.00 0.00 0.00 79 1023.3
20260830223059 78 0 0.0 1.0 0.00 0.00 0.00 79 1023.3
20260830222525 78 119 0.0 1.0 0.00 0.00 0.00 78 1023.2
20260830222024 79 0 0.0 1.0 0.00 0.00 0.00 78 1023.3
20260830221554 79 0 0.0 1.0 0.00 0.00 0.00 77 1023.4
20260830221025 80 0 0.0 1.0 0.00 0.00 0.00 78 1023.4
20260830220527 80 0 0.0 1.0 0.00 0.00 0.00 77 1023.3
20260830220053 80 0 0.0 2.0 0.00 0.00 0.00 77 1023.3
20260830215529 81 124 0.0 2.0 0.00 0.00 0.00 77 1023.4
20260830215023 81 51 0.0 2.0 0.00 0.00 0.00 76 1023.3
20260830214547 81 0 0.0 2.0 0.00 0.00 0.00 77 1023.3
20260830214025 81 27 0.0 2.0 0.00 0.00 0.00 76 1023.3
20260830213530 82 49 0.0 2.0 0.00 0.00 0.00 75 1023.2
20260830213050 82 0 0.0 2.0 0.00 0.00 0.00 74 1023.2
20260830212526 82 35 0.0 2.0 0.00 0.00 0.00 73 1023.2
20260830212026 83 29 0.0 2.0 0.00 0.00 0.00 72 1023.3
20260830211545 83 0 0.0 1.0 0.00 0.00 0.00 71 1023.4
20260830211026 83 0 0.0 1.0 0.00 0.00 0.00 72 1023.3
20260830210526 83 0 0.0 1.0 0.00 0.00 0.00 72 1023.4
20260830210048 83 89 0.0 1.0 0.00 0.00 0.00 71 1023.4
20260830205527 83 0 0.0 2.0 0.00 0.00 0.00 71 1023.4
20260830205027 83 88 0.0 2.0 0.00 0.00 0.00 71 1023.5
20260830204600 83 71 0.0 2.0 0.00 0.00 0.00 70 1023.4
20260830204029 84 127 0.0 2.0 0.00 0.00 0.00 68 1023.6
20260830203526 85 79 0.0 2.0 0.00 0.00 0.00 66 1023.6
20260830203052 86 223 0.0 2.0 0.00 0.00 0.00 62 1023.6
20260830202526 87 238 0.0 2.0 0.00 0.00 0.00 62 1023.5
20260830202028 87 0 0.0 1.0 0.00 0.00 0.00 62 1023.7
20260830201549 86 27 0.0 1.0 0.00 0.00 0.00 62 1023.7
20260830201030 85 297 0.0 2.0 0.00 0.00 0.00 62 1023.8
20260830200530 84 0 0.0 2.0 0.00 0.00 0.00 62 1023.8
20260830200046 85 292 0.0 1.0 0.00 0.00 0.00 61 1023.8
20260830195526 85 0 0.0 2.0 0.00 0.00 0.00 61 1023.8
20260830195027 85 0 0.0 3.0 0.00 0.00 0.00 61 1023.8
20260830194604 85 359 0.0 3.0 0.00 0.00 0.00 62 1023.9
20260830194027 85 316 0.0 2.0 0.00 0.00 0.00 61 1024.0
20260830193528 85 0 0.0 2.0 0.00 0.00 0.00 63 1023.8
20260830193051 85 137 0.0 2.0 0.00 0.00 0.00 62 1024.0
20260830192525 85 20 0.0 2.0 0.00 0.00 0.00 63 1024.2
20260830192025 86 359 0.0 1.0 0.00 0.00 0.00 62 1024.2
20260830191545 86 0 0.0 5.0 0.00 0.00 0.00 59 1024.3
20260830191027 85 287 0.0 5.0 0.00 0.00 0.00 59 1024.3
20260830190528 86 327 2.0 5.0 0.00 0.00 0.00 57 1024.4
20260830190058 86 37 1.0 3.0 0.00 0.00 0.00 58 1024.5
20260830185526 86 0 0.0 3.0 0.00 0.00 0.00 61 1024.6
20260830185027 85 108 1.0 3.0 0.00 0.00 0.00 59 1024.7
20260830184554 85 0 0.0 2.0 0.00 0.00 0.00 60 1024.7
20260830184025 85 155 0.0 2.0 0.00 0.00 0.00 62 1024.8
20260830183528 84 108 1.0 3.0 0.00 0.00 0.00 62 1024.8
20260830183051 84 33 1.0 3.0 0.00 0.00 0.00 62 1024.8
20260830182527 83 307 1.0 3.0 0.00 0.00 0.00 62 1024.9
20260830182028 84 295 2.0 3.0 0.00 0.00 0.00 62 1025.0
20260830181546 83 23 1.0 3.0 0.00 0.00 0.00 63 1025.0
20260830181028 83 313 0.0 5.0 0.00 0.00 0.00 66 1025.0
20260830180531 83 316 1.0 5.0 0.00 0.00 0.00 64 1025.1
20260830175525 82 308 2.0 4.0 0.00 0.00 0.00 64 1025.2
20260830175025 82 308 1.0 3.0 0.00 0.00 0.00 65 1025.3
20260830174611 82 28 1.0 5.0 0.00 0.00 0.00 68 1025.3
20260830174024 82 18 1.0 5.0 0.00 0.00 0.00 68 1025.3
20260830173528 82 25 1.0 3.0 0.00 0.00 0.00 68 1025.5
20260830173047 82 216 1.0 4.0 0.00 0.00 0.00 69 1025.3
20260830172525 81 304 2.0 4.0 0.00 0.00 0.00 68 1025.5
20260830172027 81 0 0.0 1.0 0.00 0.00 0.00 75 1025.5
20260830171547 81 301 0.0 1.0 0.00 0.00 0.00 77 1025.6
20260830171027 81 0 0.0 2.0 0.00 0.00 0.00 74 1025.6
20260830170531 81 0 0.0 2.0 0.00 0.00 0.00 72 1025.7
20260830170054 80 82 0.0 2.0 0.00 0.00 0.00 76 1025.8
20260830165524 80 0 0.0 0.0 0.00 0.00 0.00 79 1025.7
20260830165027 80 0 0.0 1.0 0.00 0.00 0.00 78 1025.8
20260830164601 80 0 0.0 1.0 0.00 0.00 0.00 78 1025.9
20260830164028 80 150 0.0 1.0 0.00 0.00 0.00 77 1025.9
20260830163525 80 145 0.0 1.0 0.00 0.00 0.00 78 1025.9
20260830163059 79 30 0.0 1.0 0.00 0.00 0.00 79 1025.9
20260830162526 79 314 0.0 3.0 0.00 0.00 0.00 80 1026.0
20260830162026 79 358 0.0 3.0 0.00 0.00 0.00 80 1026.0
20260830161605 79 23 0.0 3.0 0.00 0.00 0.00 80 1026.0
20260830161025 78 0 0.0 1.0 0.00 0.00 0.00 81 1026.0
20260830160527 78 0 0.0 2.0 0.00 0.00 0.00 81 1026.0
20260830160050 78 34 0.0 2.0 0.00 0.00 0.00 81 1025.9
20260830155529 78 319 0.0 1.0 0.00 0.00 0.00 82 1025.9
20260830155029 77 96 0.0 1.0 0.00 0.00 0.00 83 1025.9
20260830154558 77 0 0.0 1.0 0.00 0.00 0.00 82 1025.9
20260830154031 77 0 0.0 1.0 0.00 0.00 0.00 82 1025.9
20260830153527 77 41 0.0 1.0 0.00 0.00 0.00 83 1026.0
20260830153102 77 0 0.0 2.0 0.00 0.00 0.00 83 1026.0
20260830152526 76 42 0.0 2.0 0.00 0.00 0.00 83 1026.0
20260830152026 76 30 1.0 2.0 0.00 0.00 0.00 83 1026.1
20260830151556 76 67 0.0 2.0 0.00 0.00 0.00 84 1026.2
20260830151030 75 32 0.0 2.0 0.00 0.00 0.00 84 1026.1
20260830150525 75 2 0.0 3.0 0.00 0.00 0.00 84 1026.2
20260830150047 75 37 1.0 3.0 0.00 0.00 0.00 84 1026.2
20260830145529 75 309 0.0 2.0 0.00 0.00 0.00 85 1026.1
20260830145028 74 0 0.0 2.0 0.00 0.00 0.00 86 1026.1
20260830144600 74 0 0.0 1.0 0.00 0.00 0.00 87 1026.1
20260830144024 73 0 0.0 2.0 0.00 0.00 0.00 88 1026.0
20260830143525 73 103 0.0 2.0 0.00 0.00 0.00 88 1026.0
20260830143053 73 0 0.0 3.0 0.00 0.00 0.00 88 1025.9
20260830142528 72 0 1.0 3.0 0.00 0.00 0.00 89 1025.8
20260830142035 72 33 0.0 2.0 0.00 0.00 0.00 90 1025.9
20260830141546 71 227 0.0 1.0 0.00 0.00 0.00 91 1025.7
20260830141028 71 0 0.0 1.0 0.00 0.00 0.00 92 1025.8
20260830140525 70 0 0.0 1.0 0.00 0.00 0.00 94 1025.7
20260830140109 70 0 0.0 1.0 0.00 0.00 0.00 94 1025.6
20260830135527 70 0 0.0 1.0 0.00 0.00 0.00 95 1025.7
20260830135028 69 0 0.0 1.0 0.00 0.00 0.00 96 1025.6
20260830134551 69 0 0.0 0.0 0.00 0.00 0.00 97 1025.7
20260830134024 68 0 0.0 0.0 0.00 0.00 0.00 97 1025.7
20260830133527 68 0 0.0 0.0 0.00 0.00 0.00 98 1025.8
20260830133048 67 0 0.0 0.0 0.00 0.00 0.00 98 1025.8
20260830132526 67 0 0.0 0.0 0.00 0.00 0.00 98 1025.7
20260830132025 66 0 0.0 0.0 0.00 0.00 0.00 98 1025.7
20260830131549 66 0 0.0 0.0 0.00 0.00 0.00 98 1025.7
20260830131027 66 0 0.0 0.0 0.00 0.00 0.00 98 1025.7
20260830130525 66 0 0.0 0.0 0.00 0.00 0.00 98 1025.7
20260830130059 66 0 0.0 0.0 0.00 0.00 0.00 98 1025.8
20260830125527 65 0 0.0 0.0 0.00 0.00 0.00 98 1025.8
20260830125026 65 0 0.0 0.0 0.00 0.00 0.00 98 1025.7
20260830124552 65 0 0.0 0.0 0.00 0.00 0.00 98 1025.7
20260830124026 65 0 0.0 0.0 0.00 0.00 0.00 98 1025.6
20260830123530 65 0 0.0 0.0 0.00 0.00 0.00 98 1025.6
20260830123055 64 0 0.0 0.0 0.00 0.00 0.00 98 1025.7
20260830122525 64 0 0.0 0.0 0.00 0.00 0.00 98 1025.6
20260830122026 64 0 0.0 0.0 0.00 0.00 0.00 98 1025.6
20260830121600 63 0 0.0 0.0 0.00 0.00 0.00 98 1025.6
20260830121026 63 0 0.0 0.0 0.00 0.00 0.00 98 1025.6
20260830120524 63 0 0.0 0.0 0.00 0.00 0.00 98 1025.7
20260830120056 63 0 0.0 0.0 0.00 0.00 0.00 98 1025.7
20260830115527 63 0 0.0 0.0 0.00 0.00 0.00 98 1025.8
20260830115024 63 0 0.0 0.0 0.00 0.00 0.00 97 1025.6
20260830114551 63 0 0.0 0.0 0.00 0.00 0.00 97 1025.7
20260830114024 63 0 0.0 0.0 0.00 0.00 0.00 97 1025.7
20260830113525 63 0 0.0 0.0 0.00 0.00 0.00 97 1025.6
20260830113051 63 0 0.0 0.0 0.00 0.00 0.00 97 1025.6
20260830112525 63 0 0.0 0.0 0.00 0.00 0.00 98 1025.5
20260830112025 64 0 0.0 0.0 0.00 0.00 0.00 98 1025.4
20260830111554 63 0 0.0 0.0 0.00 0.00 0.00 98 1025.3
20260830111026 63 0 0.0 0.0 0.00 0.00 0.00 98 1025.4
20260830110526 63 0 0.0 0.0 0.00 0.00 0.00 97 1025.5
20260830110055 63 0 0.0 0.0 0.00 0.00 0.00 97 1025.4
20260830105524 63 0 0.0 0.0 0.00 0.00 0.00 98 1025.5
20260830105026 63 0 0.0 0.0 0.00 0.00 0.00 97 1025.2
20260830104600 63 0 0.0 0.0 0.00 0.00 0.00 97 1025.3
20260830104025 63 0 0.0 0.0 0.00 0.00 0.00 97 1025.3
20260830103527 63 0 0.0 0.0 0.00 0.00 0.00 97 1025.5
20260830103047 63 0 0.0 0.0 0.00 0.00 0.00 97 1025.3
20260830102526 63 0 0.0 0.0 0.00 0.00 0.00 97 1025.3
20260830102025 64 0 0.0 0.0 0.00 0.00 0.00 97 1025.5
20260830101557 64 0 0.0 0.0 0.00 0.00 0.00 97 1025.3
20260830101025 63 0 0.0 0.0 0.00 0.00 0.00 97 1025.3
20260830100526 63 0 0.0 0.0 0.00 0.00 0.00 97 1025.4
20260830100055 64 0 0.0 0.0 0.00 0.00 0.00 97 1025.3
20260830095524 64 0 0.0 0.0 0.00 0.00 0.00 97 1025.3
20260830095025 64 0 0.0 0.0 0.00 0.00 0.00 97 1025.3
20260830094555 64 0 0.0 0.0 0.00 0.00 0.00 97 1025.4
20260830094029 64 0 0.0 0.0 0.00 0.00 0.00 97 1025.2
20260830093525 64 0 0.0 0.0 0.00 0.00 0.00 97 1025.3
20260830093105 64 0 0.0 0.0 0.00 0.00 0.00 97 1025.3
20260830092530 64 0 0.0 0.0 0.00 0.00 0.00 97 1025.2
20260830092027 64 0 0.0 0.0 0.00 0.00 0.00 97 1025.2
20260830091553 64 0 0.0 0.0 0.00 0.00 0.00 97 1025.1
20260830091029 64 0 0.0 0.0 0.00 0.00 0.00 97 1025.3
20260830090528 64 0 0.0 0.0 0.00 0.00 0.00 97 1025.2
20260830090049 64 0 0.0 0.0 0.00 0.00 0.00 97 1025.3
20260830085524 64 0 0.0 0.0 0.00 0.00 0.00 97 1025.3
20260830085030 64 0 0.0 0.0 0.00 0.00 0.00 97 1025.5
20260830084547 65 0 0.0 0.0 0.00 0.00 0.00 97 1025.3
20260830084026 65 0 0.0 0.0 0.00 0.00 0.00 97 1025.2
20260830083526 64 0 0.0 0.0 0.00 0.00 0.00 97 1025.2
20260830083102 64 0 0.0 0.0 0.00 0.00 0.00 97 1025.2
20260830082523 64 0 0.0 0.0 0.00 0.00 0.00 97 1025.3
20260830082026 64 0 0.0 0.0 0.00 0.00 0.00 96 1025.3
20260830081556 64 0 0.0 0.0 0.00 0.00 0.00 96 1025.3
20260830081024 64 0 0.0 0.0 0.00 0.00 0.00 97 1025.3
20260830080526 64 0 0.0 0.0 0.00 0.00 0.00 97 1025.3
20260830080049 64 0 0.0 0.0 0.00 0.00 0.00 96 1025.5
20260830075524 65 0 0.0 0.0 0.00 0.00 0.00 97 1025.6
20260830075029 65 0 0.0 0.0 0.00 0.00 0.00 97 1025.5
20260830074548 65 0 0.0 0.0 0.00 0.00 0.00 97 1025.5
20260830074028 64 0 0.0 0.0 0.00 0.00 0.00 97 1025.6
20260830073525 64 0 0.0 0.0 0.00 0.00 0.00 97 1025.5
20260830073057 64 0 0.0 0.0 0.00 0.00 0.00 97 1025.6
20260830072526 64 0 0.0 0.0 0.00 0.00 0.00 96 1025.6
20260830072024 64 0 0.0 0.0 0.00 0.00 0.00 96 1025.6
20260830071604 64 0 0.0 0.0 0.00 0.00 0.00 96 1025.5
20260830071025 64 0 0.0 0.0 0.00 0.00 0.00 96 1025.6
20260830070524 64 0 0.0 0.0 0.00 0.00 0.00 96 1025.7
20260830070053 64 0 0.0 0.0 0.00 0.00 0.00 96 1025.7
20260830065526 64 0 0.0 0.0 0.00 0.00 0.00 96 1025.6
20260830065026 64 0 0.0 0.0 0.00 0.00 0.00 96 1025.5
20260830064547 64 0 0.0 0.0 0.00 0.00 0.00 96 1025.5
20260830064027 64 0 0.0 0.0 0.00 0.00 0.00 96 1025.5
20260830063526 64 0 0.0 0.0 0.00 0.00 0.00 96 1025.5
20260830063053 65 0 0.0 0.0 0.00 0.00 0.00 96 1025.5
20260830062526 65 0 0.0 0.0 0.00 0.00 0.00 96 1025.5
20260830062026 65 0 0.0 0.0 0.00 0.00 0.00 96 1025.6
20260830061547 65 0 0.0 0.0 0.00 0.00 0.00 96 1025.5
20260830061026 65 0 0.0 0.0 0.00 0.00 0.00 96 1025.6
20260830060528 65 0 0.0 0.0 0.00 0.00 0.00 96 1025.6
20260830060100 65 0 0.0 0.0 0.00 0.00 0.00 95 1025.6
20260830055526 65 0 0.0 0.0 0.00 0.00 0.00 95 1025.5
20260830055025 65 0 0.0 0.0 0.00 0.00 0.00 95 1025.5
20260830054559 65 0 0.0 0.0 0.00 0.00 0.00 95 1025.5
20260830054027 65 0 0.0 0.0 0.00 0.00 0.00 95 1025.5
20260830053526 65 0 0.0 0.0 0.00 0.00 0.00 95 1025.5
20260830053047 65 0 0.0 0.0 0.00 0.00 0.00 95 1025.5
20260830052526 65 0 0.0 0.0 0.00 0.00 0.00 95 1025.5
20260830052024 65 0 0.0 0.0 0.00 0.00 0.00 94 1025.6
20260830051548 65 0 0.0 0.0 0.00 0.00 0.00 94 1025.7
20260830051027 66 0 0.0 0.0 0.00 0.00 0.00 94 1025.5
20260830050524 66 0 0.0 0.0 0.00 0.00 0.00 94 1025.7